Location: Aiyede
(8.4833°N, 4.4500°E)
Time: 09:21:29
(UTC+00:00)

Cosmos 1707 - Pass Details

Date: 24 September 2020
Orbit: 515 x 531 km, 82.5° (Epoch: 21 October)

Event Time Altitude Azimuth Distance (km) Brightness Sun altitude
Rises 18:09:45 0° 18° (NNE) 2,618 6.1 -9.0°
Reaches altitude 10° 18:12:15 10° 34° (NE) 1,734 5.0 -9.6°
Maximum altitude 18:15:11 21° 85° (E) 1,183 3.9 -10.3°
Drops below altitude 10° 18:18:08 10° 136° (SE) 1,741 5.0 -11.0°
Sets 18:20:38 0° 152° (SSE) 2,631 6.0 -11.7°
